Time,TemperatureF,DewpointF,PressureIn,WindDirection,WindDirectionDegrees,WindSpeedMPH,WindSpeedGustMPH,Humidity,HourlyPrecipIn,Conditions,Clouds,dailyrainin,SoftwareType,DateUTC
2013-03-15 18:47:00,65.0,40.1,30.20,West,261,0.0,0.0,40,0.00,,CLR,0.00,VWS V14.01,2013-03-15 22:47:00,
2013-03-15 18:48:00,64.7,39.8,30.20,West,259,1.0,1.0,40,0.00,,CLR,0.00,VWS V14.01,2013-03-15 22:48:00,
2013-03-15 18:49:00,64.5,39.7,30.20,West,259,0.0,0.0,40,0.00,,CLR,0.00,VWS V14.01,2013-03-15 22:49:00,
2013-03-15 18:54:00,63.5,39.4,30.20,WSW,247,0.0,2.0,41,0.00,,CLR,0.00,VWS V14.01,2013-03-15 22:54:00,
2013-03-15 18:59:00,62.9,39.5,30.20,WSW,246,0.0,0.0,42,0.00,,CLR,0.00,VWS V14.01,2013-03-15 22:59:00,
2013-03-15 19:04:00,62.4,39.6,30.21,NE,49,0.0,2.0,43,0.00,,FEW250,0.00,VWS V14.01,2013-03-15 23:04:00,
2013-03-15 19:09:00,61.5,38.8,30.21,WNW,287,0.0,2.0,43,0.00,,FEW250,0.00,VWS V14.01,2013-03-15 23:09:00,
2013-03-15 19:14:00,61.0,39.0,30.21,NE,49,3.0,3.0,44,0.00,,FEW250,0.00,VWS V14.01,2013-03-15 23:14:00,
2013-03-15 19:19:00,60.4,38.4,30.21,ENE,60,0.0,0.0,44,0.00,,FEW250,0.00,VWS V14.01,2013-03-15 23:19:00,
2013-03-15 19:24:00,59.8,37.9,30.21,ENE,61,0.0,0.0,44,0.00,,FEW250,0.00,VWS V14.01,2013-03-15 23:24:00,
2013-03-15 19:30:00,59.2,37.9,30.21,ENE,59,0.0,0.0,45,0.00,,FEW250,0.00,VWS V14.01,2013-03-15 23:30:00,
2013-03-15 19:35:00,58.6,37.9,30.22,ENE,59,0.0,0.0,46,0.00,,FEW250,0.00,VWS V14.01,2013-03-15 23:35:00,
2013-03-15 19:40:00,58.1,38.0,30.22,NE,39,0.0,0.0,47,0.00,,FEW250,0.00,VWS V14.01,2013-03-15 23:40:00,
2013-03-15 19:45:00,57.6,38.1,30.22,West,278,0.0,0.0,48,0.00,,FEW250,0.00,VWS V14.01,2013-03-15 23:45:00,
2013-03-15 19:50:00,57.2,38.8,30.22,West,278,0.0,0.0,50,0.00,,FEW250,0.00,VWS V14.01,2013-03-15 23:50:00,
2013-03-15 19:55:00,56.7,39.3,30.22,West,278,0.0,0.0,52,0.00,,FEW250,0.00,VWS V14.01,2013-03-15 23:55:00,
2013-03-15 20:01:00,56.5,39.6,30.22,West,279,0.0,0.0,53,0.00,,FEW250,0.00,VWS V14.01,2013-03-16 00:01:00,
2013-03-15 20:06:00,56.2,39.8,30.22,North,356,0.0,0.0,54,0.00,,FEW250,0.00,VWS V14.01,2013-03-16 00:06:00,
2013-03-15 20:11:00,55.9,39.5,30.22,North,6,0.0,0.0,54,0.00,,FEW250,0.00,VWS V14.01,2013-03-16 00:11:00,
2013-03-15 20:17:00,55.7,39.8,30.22,SE,141,0.0,0.0,55,0.00,,FEW250,0.00,VWS V14.01,2013-03-16 00:17:00,
2013-03-15 20:22:00,55.4,39.5,30.22,NNE,13,0.0,0.0,55,0.00,,FEW250,0.00,VWS V14.01,2013-03-16 00:22:00,
2013-03-15 20:27:00,55.3,39.9,30.22,ESE,108,0.0,0.0,56,0.00,,FEW250,0.00,VWS V14.01,2013-03-16 00:27:00,
2013-03-15 20:32:00,55.1,39.7,30.22,NNW,339,0.0,2.0,56,0.00,,FEW250,0.00,VWS V14.01,2013-03-16 00:32:00,
2013-03-15 20:37:00,55.0,40.1,30.22,WNW,292,0.0,2.0,57,0.00,,FEW250,0.00,VWS V14.01,2013-03-16 00:37:00,
2013-03-15 20:42:00,55.0,40.1,30.22,SSE,161,0.0,1.0,57,0.00,,FEW250,0.00,VWS V14.01,2013-03-16 00:42:00,
2013-03-15 20:47:00,54.8,40.3,30.22,East,94,0.0,0.0,58,0.00,,FEW250,0.00,VWS V14.01,2013-03-16 00:47:00,
2013-03-15 20:52:00,54.7,40.7,30.22,ESE,111,0.0,0.0,59,0.00,,FEW250,0.00,VWS V14.01,2013-03-16 00:52:00,
2013-03-15 20:57:00,54.5,40.9,30.22,ESE,108,0.0,0.0,60,0.00,,FEW250,0.00,VWS V14.01,2013-03-16 00:57:00,
2013-03-15 21:02:00,54.4,41.2,30.22,West,280,0.0,0.0,61,0.00,,CLR,0.00,VWS V14.01,2013-03-16 01:02:00,
2013-03-15 21:07:00,54.2,41.5,30.22,NNW,338,0.0,0.0,62,0.00,,CLR,0.00,VWS V14.01,2013-03-16 01:07:00,
2013-03-15 21:12:00,54.1,41.8,30.22,ESE,103,0.0,0.0,63,0.00,,CLR,0.00,VWS V14.01,2013-03-16 01:12:00,
2013-03-15 21:17:00,54.1,42.2,30.22,East,99,0.0,0.0,64,0.00,,CLR,0.00,VWS V14.01,2013-03-16 01:17:00,
2013-03-15 21:23:00,53.9,42.8,30.22,WNW,302,0.0,0.0,66,0.00,,CLR,0.00,VWS V14.01,2013-03-16 01:23:00,
2013-03-15 21:28:00,53.8,42.7,30.22,SW,229,0.0,0.0,66,0.00,,CLR,0.00,VWS V14.01,2013-03-16 01:28:00,
2013-03-15 21:33:00,53.8,43.1,30.22,SW,229,0.0,2.0,67,0.00,,CLR,0.00,VWS V14.01,2013-03-16 01:33:00,
2013-03-15 21:38:00,53.6,43.3,30.22,WSW,255,0.0,0.0,68,0.00,,CLR,0.00,VWS V14.01,2013-03-16 01:38:00,
2013-03-15 21:43:00,53.6,43.7,30.22,WSW,258,0.0,0.0,69,0.00,,CLR,0.00,VWS V14.01,2013-03-16 01:43:00,
2013-03-15 21:48:00,53.6,43.7,30.22,SE,126,0.0,0.0,69,0.00,,CLR,0.00,VWS V14.01,2013-03-16 01:48:00,
2013-03-15 21:53:00,53.6,44.1,30.22,SW,227,2.0,2.0,70,0.00,,CLR,0.00,VWS V14.01,2013-03-16 01:53:00,
2013-03-15 21:58:00,53.5,44.0,30.22,North,358,0.0,0.0,70,0.00,,CLR,0.00,VWS V14.01,2013-03-16 01:58:00,
2013-03-15 22:03:00,53.5,44.3,30.22,NW,311,0.0,0.0,71,0.00,,FEW250,0.00,VWS V14.01,2013-03-16 02:03:00,
2013-03-15 22:09:00,53.5,44.7,30.22,WSW,237,0.0,0.0,72,0.00,,FEW250,0.00,VWS V14.01,2013-03-16 02:09:00,
2013-03-15 22:14:00,53.6,44.8,30.22,SE,135,0.0,1.0,72,0.00,,FEW250,0.00,VWS V14.01,2013-03-16 02:14:00,
2013-03-15 22:19:00,53.6,44.8,30.22,WNW,301,0.0,1.0,72,0.00,,FEW250,0.00,VWS V14.01,2013-03-16 02:19:00,
2013-03-15 22:24:00,53.6,44.8,30.22,SW,225,0.0,2.0,72,0.00,,FEW250,0.00,VWS V14.01,2013-03-16 02:24:00,
2013-03-15 22:29:00,53.6,44.8,30.22,SW,217,0.0,0.0,72,0.00,,FEW250,0.00,VWS V14.01,2013-03-16 02:29:00,
2013-03-15 22:35:00,53.8,45.0,30.22,ENE,65,0.0,0.0,72,0.00,,FEW250,0.00,VWS V14.01,2013-03-16 02:35:00,
2013-03-15 22:40:00,53.8,45.0,30.22,West,274,0.0,0.0,72,0.00,,FEW250,0.00,VWS V14.01,2013-03-16 02:40:00,
2013-03-15 22:46:00,54.1,44.9,30.22,WSW,245,0.0,0.0,71,0.00,,FEW250,0.00,VWS V14.01,2013-03-16 02:46:00,
2013-03-15 22:51:00,54.1,44.5,30.22,East,88,0.0,0.0,70,0.00,,FEW250,0.00,VWS V14.01,2013-03-16 02:51:00,
2013-03-15 22:57:00,54.2,44.6,30.22,SSE,148,0.0,0.0,70,0.00,,FEW250,0.00,VWS V14.01,2013-03-16 02:57:00,
2013-03-15 23:02:00,54.4,44.5,30.22,SW,214,0.0,1.0,69,0.00,,CLR,0.00,VWS V14.01,2013-03-16 03:02:00,
2013-03-15 23:07:00,54.5,44.5,30.22,SW,226,0.0,2.0,69,0.00,,CLR,0.00,VWS V14.01,2013-03-16 03:07:00,
2013-03-15 23:12:00,54.7,44.7,30.22,NE,35,0.0,2.0,69,0.00,,CLR,0.00,VWS V14.01,2013-03-16 03:12:00,
2013-03-15 23:17:00,54.7,44.7,30.22,ESE,107,0.0,0.0,69,0.00,,CLR,0.00,VWS V14.01,2013-03-16 03:17:00,
2013-03-15 23:22:00,54.7,44.7,30.22,SE,130,0.0,0.0,69,0.00,,CLR,0.00,VWS V14.01,2013-03-16 03:22:00,
2013-03-15 23:27:00,54.7,44.7,30.22,ENE,63,0.0,0.0,69,0.00,,CLR,0.00,VWS V14.01,2013-03-16 03:27:00,
2013-03-15 23:32:00,54.8,44.8,30.22,West,274,0.0,0.0,69,0.00,,CLR,0.00,VWS V14.01,2013-03-16 03:32:00,
2013-03-15 23:37:00,54.8,44.8,30.22,WNW,287,0.0,1.0,69,0.00,,CLR,0.00,VWS V14.01,2013-03-16 03:37:00,
2013-03-15 23:42:00,54.8,45.2,30.22,West,281,0.0,0.0,70,0.00,,CLR,0.00,VWS V14.01,2013-03-16 03:42:00,
2013-03-15 23:47:00,54.8,45.2,30.21,West,281,0.0,0.0,70,0.00,,CLR,0.00,VWS V14.01,2013-03-16 03:47:00,
2013-03-15 23:52:00,55.0,45.4,30.21,WNW,285,0.0,2.0,70,0.00,,CLR,0.00,VWS V14.01,2013-03-16 03:52:00,
2013-03-15 23:57:00,55.0,45.4,30.21,ESE,107,0.0,0.0,70,0.00,,CLR,0.00,VWS V14.01,2013-03-16 03:57:00,